TimeEST,TemperatureF,Dew PointF,Humidity,Sea Level PressureIn,VisibilityMPH,Wind Direction,Wind SpeedMPH,Gust SpeedMPH,PrecipitationIn,Events,Conditions,WindDirDegrees,DateUTC
12:53 AM,32.0,27.0,82,29.88,10.0,Calm,Calm,-,N/A,,Clear,0,2013-01-20 05:53:00
1:53 AM,30.0,27.0,88,29.86,10.0,Calm,Calm,-,N/A,,Clear,0,2013-01-20 06:53:00
2:53 AM,28.0,26.1,92,29.85,10.0,Calm,Calm,-,N/A,,Clear,0,2013-01-20 07:53:00
3:53 AM,28.9,26.1,89,29.82,10.0,Calm,Calm,-,N/A,,Clear,0,2013-01-20 08:53:00
4:53 AM,30.0,27.0,88,29.78,10.0,Calm,Calm,-,N/A,,Clear,0,2013-01-20 09:53:00
5:53 AM,28.9,26.1,89,29.76,10.0,Calm,Calm,-,N/A,,Clear,0,2013-01-20 10:53:00
6:53 AM,28.0,25.0,88,29.75,10.0,Calm,Calm,-,N/A,,Clear,0,2013-01-20 11:53:00
7:53 AM,33.1,27.0,78,29.75,10.0,Calm,Calm,-,N/A,,Clear,0,2013-01-20 12:53:00
8:53 AM,43.0,28.9,58,29.76,10.0,SW,5.8,-,N/A,,Clear,220,2013-01-20 13:53:00
9:53 AM,48.9,28.0,44,29.75,10.0,Variable,4.6,16.1,N/A,,Clear,0,2013-01-20 14:53:00
10:53 AM,52.0,28.0,40,29.73,10.0,WSW,9.2,24.2,N/A,,Clear,240,2013-01-20 15:53:00
11:53 AM,54.0,28.0,37,29.71,10.0,West,10.4,20.7,N/A,,Clear,280,2013-01-20 16:53:00
12:53 PM,54.0,21.9,29,29.71,10.0,West,15.0,33.4,N/A,,Clear,280,2013-01-20 17:53:00
1:53 PM,54.0,15.1,22,29.72,10.0,WNW,13.8,24.2,N/A,,Clear,290,2013-01-20 18:53:00
2:53 PM,51.1,16.0,25,29.76,10.0,WNW,9.2,24.2,N/A,,Clear,290,2013-01-20 19:53:00
3:53 PM,50.0,14.0,24,29.80,10.0,WNW,12.7,38.0,N/A,,Clear,290,2013-01-20 20:53:00
4:53 PM,45.0,12.9,27,29.85,10.0,WNW,10.4,25.3,N/A,,Clear,290,2013-01-20 21:53:00
5:53 PM,42.1,14.0,32,29.90,10.0,WNW,15.0,24.2,N/A,,Clear,300,2013-01-20 22:53:00
6:53 PM,39.0,14.0,36,29.94,10.0,WNW,6.9,16.1,N/A,,Clear,300,2013-01-20 23:53:00
7:53 PM,37.0,12.9,37,29.99,10.0,WNW,8.1,-,N/A,,Clear,290,2013-01-21 00:53:00
8:53 PM,35.1,10.9,37,30.01,10.0,NW,15.0,25.3,N/A,,Clear,320,2013-01-21 01:53:00
9:53 PM,33.1,10.9,40,30.02,10.0,WNW,9.2,-,N/A,,Clear,300,2013-01-21 02:53:00
10:53 PM,30.9,12.0,46,30.02,10.0,NNW,10.4,-,N/A,,Clear,330,2013-01-21 03:53:00
11:53 PM,30.0,10.9,45,30.05,10.0,NW,4.6,-,N/A,,Clear,320,2013-01-21 04:53:00